,,Stat6,,Stat2,,Stat8,,Stat9,,Stat10,,Wind1,,Wind1,
time,status,PA1M_AVG,status,PR1M_SUM,status,RH1M_AVG,status,SR1M_AVG,status,TA1M_AVG,status,W1dAve1m,status,W1sAve1m,
2005-10-28, 00:00:00,VALID,918.649,VALID,0,VALID,100,VALID,-0.101885,VALID,20.0355,VALID,99,VALID,0.724568,
2005-10-28, 00:01:00,VALID,918.647,VALID,0,VALID,100,VALID,-0.101885,VALID,20.0487,VALID,83,VALID,0.657584,
2005-10-28, 00:02:00,VALID,918.659,VALID,0,VALID,100,VALID,-0.0849042,VALID,20.0681,VALID,113,VALID,1.24006,
2005-10-28, 00:03:00,VALID,918.655,VALID,0,VALID,100,VALID,-0.0679233,VALID,20.0879,VALID,99,VALID,0.959695,
2005-10-28, 00:04:00,VALID,918.657,VALID,0,VALID,100,VALID,-0.0849042,VALID,20.1001,VALID,96,VALID,0.835938,
2005-10-28, 00:05:00,VALID,918.674,VALID,0,VALID,100,VALID,-0.118866,VALID,20.1225,VALID,107,VALID,1.05433,
2005-10-28, 00:06:00,VALID,918.675,VALID,0,VALID,100,VALID,-0.0849042,VALID,20.1322,VALID,87,VALID,0.524554,
2005-10-28, 00:07:00,VALID,918.669,VALID,0,VALID,100,VALID,-0.101885,VALID,20.1516,VALID,90,VALID,0.867914,
2005-10-28, 00:08:00,VALID,918.663,VALID,0,VALID,100,VALID,-0.0849042,VALID,20.1647,VALID,91,VALID,0.896307,
2005-10-28, 00:09:00,VALID,918.671,VALID,0,VALID,100,VALID,-0.101885,VALID,20.1908,VALID,120,VALID,1.20573,
2005-10-28, 00:10:00,VALID,918.669,VALID,0,VALID,100,VALID,-0.0679233,VALID,20.2035,VALID,105,VALID,1.01598,
2005-10-28, 00:11:00,VALID,918.681,VALID,0,VALID,100,VALID,-0.0849042,VALID,20.2162,VALID,120,VALID,1.1978,
2005-10-28, 00:12:00,VALID,918.691,VALID,0,VALID,100,VALID,-0.0849042,VALID,20.2453,VALID,122,VALID,1.46094,
2005-10-28, 00:13:00,VALID,918.691,VALID,0,VALID,100,VALID,-0.0849042,VALID,20.2885,VALID,143,VALID,1.23876,
2005-10-28, 00:14:00,VALID,918.704,VALID,0,VALID,100,VALID,-0.0849042,VALID,20.3139,VALID,145,VALID,1.30673,
2005-10-28, 00:15:00,VALID,918.692,VALID,0,VALID,100,VALID,-0.0849042,VALID,20.3266,VALID,117,VALID,0.966406,
2005-10-28, 00:16:00,VALID,918.688,VALID,0,VALID,100,VALID,-0.101885,VALID,20.3591,VALID,114,VALID,1.07613,
2005-10-28, 00:17:00,VALID,918.678,VALID,0,VALID,99.986,VALID,-0.0849042,VALID,20.3519,VALID,131,VALID,0.667459,
2005-10-28, 00:18:00,VALID,918.661,VALID,0,VALID,99.9151,VALID,-0.0679233,VALID,20.3613,VALID,107,VALID,0.727515,
2005-10-28, 00:19:00,VALID,918.66,VALID,0,VALID,99.8616,VALID,-0.0339617,VALID,20.3611,VALID,118,VALID,0.963542,
2005-10-28, 00:20:00,VALID,918.645,VALID,0,VALID,99.8082,VALID,0,VALID,20.3546,VALID,116,VALID,0.812309,
2005-10-28, 00:21:00,VALID,918.636,VALID,0,VALID,99.7269,VALID,-0.0339617,VALID,20.3678,VALID,99,VALID,0.758854,
2005-10-28, 00:22:00,VALID,918.642,VALID,0,VALID,99.6849,VALID,-0.0849042,VALID,20.3772,VALID,92,VALID,0.622142,
2005-10-28, 00:23:00,VALID,918.628,VALID,0,VALID,99.676,VALID,-0.0849042,VALID,20.3703,VALID,97,VALID,0.822129,
2005-10-28, 00:24:00,VALID,918.629,VALID,0,VALID,99.648,VALID,-0.0509425,VALID,20.371,VALID,125,VALID,0.959263,
2005-10-28, 00:25:00,VALID,918.626,VALID,0,VALID,99.6887,VALID,-0.0169808,VALID,20.3646,VALID,107,VALID,0.450036,
2005-10-28, 00:26:00,VALID,918.621,VALID,0,VALID,99.6849,VALID,-0.0169808,VALID,20.3675,VALID,128,VALID,1.13354,
2005-10-28, 00:27:00,VALID,918.616,VALID,0,VALID,99.5972,VALID,-0.0339617,VALID,20.3874,VALID,135,VALID,0.86452,
2005-10-28, 00:28:00,VALID,918.623,VALID,0,VALID,99.5781,VALID,0,VALID,20.3867,VALID,164,VALID,0.637576,
2005-10-28, 00:29:00,VALID,918.624,VALID,0,VALID,99.512,VALID,-0.0339617,VALID,20.3999,VALID,143,VALID,0.973214,
2005-10-28, 00:30:00,VALID,918.65,VALID,0,VALID,99.4636,VALID,-0.0339617,VALID,20.4101,VALID,130,VALID,0.847301,
2005-10-28, 00:31:00,VALID,918.641,VALID,0,VALID,99.4344,VALID,-0.0339617,VALID,20.4068,VALID,145,VALID,1.00074,
2005-10-28, 00:32:00,VALID,918.65,VALID,0,VALID,99.4013,VALID,-0.0339617,VALID,20.3869,VALID,116,VALID,0.81157,
2005-10-28, 00:33:00,VALID,918.653,VALID,0,VALID,99.4128,VALID,-0.0509425,VALID,20.3939,VALID,149,VALID,0.629092,
2005-10-28, 00:34:00,VALID,918.66,VALID,0,VALID,99.4725,VALID,-0.0679233,VALID,20.3837,VALID,149,VALID,0.149132,
2005-10-28, 00:35:00,VALID,918.657,VALID,0,VALID,99.4573,VALID,-0.0169808,VALID,20.3872,VALID,144,VALID,0.837573,
2005-10-28, 00:36:00,VALID,918.648,VALID,0,VALID,99.4471,VALID,0,VALID,20.3708,VALID,172,VALID,0.735305,
2005-10-28, 00:37:00,VALID,918.642,VALID,0,VALID,99.4433,VALID,-0.0339617,VALID,20.3775,VALID,180,VALID,0.751189,
2005-10-28, 00:38:00,VALID,918.629,VALID,0,VALID,99.4331,VALID,-0.0339617,VALID,20.374,VALID,143,VALID,0.476953,
2005-10-28, 00:39:00,VALID,918.613,VALID,0,VALID,99.4268,VALID,-0.0339617,VALID,20.3608,VALID,225,VALID,0.693452,
2005-10-28, 00:40:00,VALID,918.595,VALID,0,VALID,99.4013,VALID,-0.0339617,VALID,20.3285,VALID,243,VALID,0.745486,
2005-10-28, 00:41:00,VALID,918.572,VALID,0,VALID,99.5094,VALID,-0.0849042,VALID,20.248,VALID,265,VALID,0.617188,
2005-10-28, 00:42:00,VALID,918.551,VALID,0,VALID,99.6658,VALID,-0.0339617,VALID,20.1732,VALID,276,VALID,0.494913,
2005-10-28, 00:43:00,VALID,918.529,VALID,0,VALID,99.8868,VALID,-0.0169808,VALID,20.1123,VALID,276,VALID,0.291853,
2005-10-28, 00:44:00,VALID,918.499,VALID,0,VALID,100,VALID,0,VALID,20.0733,VALID,276,VALID,0.378906,
2005-10-28, 00:45:00,VALID,918.483,VALID,0,VALID,100,VALID,-0.0509425,VALID,20.0511,VALID,262,VALID,0.611506,
2005-10-28, 00:46:00,VALID,918.453,VALID,0,VALID,100,VALID,0,VALID,20.032,VALID,262,VALID,0.31032,
2005-10-28, 00:47:00,VALID,918.45,VALID,0,VALID,100,VALID,-0.0339617,VALID,19.9927,VALID,262,VALID,0.355015,
2005-10-28, 00:48:01,VALID,918.445,VALID,0,VALID,100,VALID,0.0339617,VALID,19.9659,VALID,262,VALID,0.458789,
2005-10-28, 00:49:01,VALID,918.432,VALID,0,VALID,100,VALID,0.0849042,VALID,19.9201,VALID,262,VALID,0.323289,
2005-10-28, 00:50:01,VALID,918.425,VALID,0,VALID,100,VALID,0.0679233,VALID,19.9005,VALID,262,VALID,0.0265625,
2005-10-28, 00:51:00,VALID,918.411,VALID,0,VALID,100,VALID,0.0849042,VALID,19.9013,VALID,262,VALID,0,
2005-10-28, 00:52:00,VALID,918.397,VALID,0,VALID,100,VALID,0.0679233,VALID,19.8809,VALID,262,VALID,0,
2005-10-28, 00:53:00,VALID,918.39,VALID,0,VALID,100,VALID,0.0679233,VALID,19.898,VALID,262,VALID,0,
2005-10-28, 00:54:00,VALID,918.363,VALID,0,VALID,100,VALID,0.0849042,VALID,19.9105,VALID,262,VALID,0.107031,
2005-10-28, 00:55:01,VALID,918.368,VALID,0,VALID,100,VALID,0.0849042,VALID,19.9072,VALID,262,VALID,0.0127668,
2005-10-28, 00:56:00,VALID,918.365,VALID,0,VALID,100,VALID,0.0849042,VALID,19.9035,VALID,262,VALID,0.150298,
2005-10-28, 00:57:00,VALID,918.365,VALID,0,VALID,100,VALID,0.0339617,VALID,19.9067,VALID,262,VALID,0.0543155,
2005-10-28, 00:58:00,VALID,918.36,VALID,0,VALID,100,VALID,0.0849042,VALID,19.9264,VALID,262,VALID,0.00106534,
2005-10-28, 00:59:00,VALID,918.366,VALID,0,VALID,100,VALID,0.0849042,VALID,19.9495,VALID,262,VALID,0,
2005-10-28, 01:00:01,VALID,918.358,VALID,0,VALID,100,VALID,0.101885,VALID,19.949,VALID,233,VALID,0.0855655,
2005-10-28, 01:01:00,VALID,918.34,VALID,0,VALID,100,VALID,0.0849042,VALID,19.936,VALID,115,VALID,0.266387,
2005-10-28, 01:02:00,VALID,918.326,VALID,0,VALID,100,VALID,0.101885,VALID,19.9393,VALID,115,VALID,0.192264,
2005-10-28, 01:03:00,VALID,918.315,VALID,0,VALID,100,VALID,0,VALID,19.9438,VALID,120,VALID,0.28032,
2005-10-28, 01:04:00,VALID,918.308,VALID,0,VALID,100,VALID,-0.0679233,VALID,19.9609,VALID,128,VALID,0.330171,
2005-10-28, 01:05:00,VALID,918.288,VALID,0,VALID,100,VALID,-0.0169808,VALID,19.9766,VALID,140,VALID,0.36616,
2005-10-28, 01:06:00,VALID,918.276,VALID,0,VALID,100,VALID,-0.0169808,VALID,19.9997,VALID,96,VALID,0.374455,
2005-10-28, 01:07:00,VALID,918.269,VALID,0,VALID,100,VALID,-0.0169808,VALID,20.0153,VALID,77,VALID,0.18821,
2005-10-28, 01:08:01,VALID,918.261,VALID,0,VALID,100,VALID,-0.0169808,VALID,20.0151,VALID,76,VALID,0.015625,
2005-10-28, 01:09:01,VALID,918.248,VALID,0,VALID,100,VALID,-0.0169808,VALID,20.0183,VALID,76,VALID,0.185971,
2005-10-28, 01:10:01,VALID,918.244,VALID,0,VALID,100,VALID,0,VALID,20.0216,VALID,76,VALID,0.243096,
2005-10-28, 01:11:00,VALID,918.234,VALID,0,VALID,100,VALID,0,VALID,20.038,VALID,76,VALID,0.0430596,
2005-10-28, 01:12:00,VALID,918.238,VALID,0,VALID,100,VALID,-0.0169808,VALID,20.0409,VALID,76,VALID,0.0674716,
2005-10-28, 01:13:00,VALID,918.24,VALID,0,VALID,100,VALID,0,VALID,20.0541,VALID,76,VALID,0.128815,
2005-10-28, 01:14:00,VALID,918.236,VALID,0,VALID,100,VALID,0,VALID,20.0504,VALID,76,VALID,0.391827,
2005-10-28, 01:15:00,VALID,918.23,VALID,0,VALID,100,VALID,-0.0169808,VALID,20.0216,VALID,76,VALID,0.423828,
2005-10-28, 01:16:00,VALID,918.234,VALID,0,VALID,100,VALID,-0.0509425,VALID,19.9927,VALID,76,VALID,0.263338,
2005-10-28, 01:17:01,VALID,918.236,VALID,0,VALID,100,VALID,-0.0169808,VALID,19.9801,VALID,76,VALID,0.326637,
2005-10-28, 01:18:00,VALID,918.225,VALID,0,VALID,100,VALID,-0.0679233,VALID,19.9669,VALID,76,VALID,0.205333,
2005-10-28, 01:19:01,VALID,918.219,VALID,0,VALID,100,VALID,-0.0679233,VALID,19.9443,VALID,76,VALID,0,
2005-10-28, 01:20:00,VALID,918.216,VALID,0,VALID,100,VALID,-0.101885,VALID,19.9353,VALID,76,VALID,0.0852108,
2005-10-28, 01:21:01,VALID,918.199,VALID,0,VALID,100,VALID,-0.101885,VALID,19.9289,VALID,76,VALID,0,
2005-10-28, 01:22:00,VALID,918.196,VALID,0,VALID,100,VALID,-0.101885,VALID,19.9159,VALID,76,VALID,0,
2005-10-28, 01:23:01,VALID,918.184,VALID,0,VALID,100,VALID,-0.101885,VALID,19.9097,VALID,76,VALID,0,
2005-10-28, 01:24:00,VALID,918.184,VALID,0,VALID,100,VALID,-0.101885,VALID,19.8963,VALID,76,VALID,0,
2005-10-28, 01:25:00,VALID,918.179,VALID,0,VALID,100,VALID,-0.101885,VALID,19.8938,VALID,76,VALID,0,
2005-10-28, 01:26:00,VALID,918.177,VALID,0,VALID,100,VALID,-0.101885,VALID,19.8702,VALID,76,VALID,0,
2005-10-28, 01:27:01,VALID,918.175,VALID,0,VALID,100,VALID,-0.101885,VALID,19.8707,VALID,76,VALID,0.0322516,
2005-10-28, 01:28:01,VALID,918.163,VALID,0,VALID,100,VALID,-0.0679233,VALID,19.87,VALID,76,VALID,0,
2005-10-28, 01:29:00,VALID,918.156,VALID,0,VALID,100,VALID,-0.0169808,VALID,19.8928,VALID,76,VALID,0.245164,
2005-10-28, 01:30:01,VALID,918.151,VALID,0,VALID,100,VALID,-0.0849042,VALID,19.8801,VALID,76,VALID,0.413707,
2005-10-28, 01:31:01,VALID,918.141,VALID,0,VALID,100,VALID,-0.0679233,VALID,19.8739,VALID,111,VALID,0.558222,
2005-10-28, 01:32:00,VALID,918.126,VALID,0,VALID,100,VALID,-0.0509425,VALID,19.8834,VALID,140,VALID,0.524891,
2005-10-28, 01:33:00,VALID,918.127,VALID,0,VALID,100,VALID,-0.0339617,VALID,19.8789,VALID,142,VALID,0.348214,
2005-10-28, 01:34:01,VALID,918.108,VALID,0,VALID,100,VALID,0,VALID,19.8921,VALID,142,VALID,0.237537,
2005-10-28, 01:35:00,VALID,918.115,VALID,0,VALID,100,VALID,0,VALID,19.9047,VALID,146,VALID,0.117882,
2005-10-28, 01:36:01,VALID,918.103,VALID,0,VALID,100,VALID,0,VALID,19.9018,VALID,136,VALID,0.483173,
2005-10-28, 01:37:00,VALID,918.103,VALID,0,VALID,100,VALID,0.0169808,VALID,19.9142,VALID,125,VALID,0.195313,
2005-10-28, 01:38:00,VALID,918.103,VALID,0,VALID,100,VALID,0.0169808,VALID,19.9179,VALID,125,VALID,0.00334821,
2005-10-28, 01:39:00,VALID,918.101,VALID,0,VALID,100,VALID,0.0509425,VALID,19.9142,VALID,128,VALID,0.200195,
2005-10-28, 01:40:00,VALID,918.115,VALID,0,VALID,100,VALID,0,VALID,19.9179,VALID,132,VALID,0.20141,
2005-10-28, 01:41:00,VALID,918.108,VALID,0,VALID,100,VALID,0,VALID,19.9244,VALID,134,VALID,0.422247,
2005-10-28, 01:42:00,VALID,918.121,VALID,0,VALID,100,VALID,0.0339617,VALID,19.9244,VALID,140,VALID,0.180208,
2005-10-28, 01:43:00,VALID,918.133,VALID,0,VALID,100,VALID,0.0169808,VALID,19.9408,VALID,145,VALID,0.287305,
2005-10-28, 01:44:00,VALID,918.159,VALID,0,VALID,100,VALID,0.0509425,VALID,19.9142,VALID,147,VALID,0.539395,
2005-10-28, 01:45:00,VALID,918.176,VALID,0,VALID,100,VALID,0.0339617,VALID,19.9209,VALID,148,VALID,0.828125,
2005-10-28, 01:46:01,VALID,918.178,VALID,0,VALID,100,VALID,0.0169808,VALID,19.9206,VALID,147,VALID,0.487827,
2005-10-28, 01:47:00,VALID,918.186,VALID,0,VALID,100,VALID,0.0339617,VALID,19.9204,VALID,152,VALID,0.648615,
2005-10-28, 01:48:01,VALID,918.191,VALID,0,VALID,100,VALID,0.0339617,VALID,19.9206,VALID,135,VALID,0.928925,
2005-10-28, 01:49:00,VALID,918.19,VALID,0,VALID,100,VALID,0.0169808,VALID,19.9308,VALID,111,VALID,0.627477,
2005-10-28, 01:50:00,VALID,918.168,VALID,0,VALID,100,VALID,0.0339617,VALID,19.9209,VALID,109,VALID,0.327943,
2005-10-28, 01:51:00,VALID,918.162,VALID,0,VALID,100,VALID,0.0169808,VALID,19.9042,VALID,117,VALID,0.17152,
2005-10-28, 01:52:01,VALID,918.143,VALID,0,VALID,100,VALID,0.0339617,VALID,19.8983,VALID,116,VALID,0.40253,
2005-10-28, 01:53:00,VALID,918.126,VALID,0,VALID,100,VALID,0.0339617,VALID,19.8918,VALID,116,VALID,0.159375,
2005-10-28, 01:54:00,VALID,918.102,VALID,0,VALID,100,VALID,0.0169808,VALID,19.8816,VALID,116,VALID,0.0775923,
2005-10-28, 01:55:01,VALID,918.079,VALID,0,VALID,100,VALID,0.0339617,VALID,19.898,VALID,116,VALID,0.114955,
2005-10-28, 01:56:00,VALID,918.065,VALID,0,VALID,100,VALID,0,VALID,19.8951,VALID,116,VALID,0.0571646,
2005-10-28, 01:57:01,VALID,918.045,VALID,0,VALID,100,VALID,0.0849042,VALID,19.8918,VALID,116,VALID,0.000200321,
2005-10-28, 01:58:01,VALID,918.019,VALID,0,VALID,100,VALID,0,VALID,19.8814,VALID,116,VALID,0.20827,
2005-10-28, 01:59:00,VALID,918.008,VALID,0,VALID,100,VALID,0.0169808,VALID,19.8719,VALID,107,VALID,0.40952,
2005-10-28, 02:00:00,VALID,918.008,VALID,0,VALID,100,VALID,0.0339617,VALID,19.8692,VALID,72,VALID,0.334484,
2005-10-28, 02:01:01,VALID,917.993,VALID,0,VALID,100,VALID,0.0169808,VALID,19.8394,VALID,72,VALID,0.142485,
2005-10-28, 02:02:00,VALID,917.982,VALID,0,VALID,100,VALID,0,VALID,19.814,VALID,72,VALID,0.112909,
2005-10-28, 02:03:00,VALID,917.986,VALID,0,VALID,100,VALID,0.0169808,VALID,19.8014,VALID,72,VALID,0,
2005-10-28, 02:04:01,VALID,917.974,VALID,0,VALID,100,VALID,0.0169808,VALID,19.7942,VALID,72,VALID,0.000887784,
2005-10-28, 02:05:01,VALID,917.966,VALID,0,VALID,100,VALID,0,VALID,19.7787,VALID,72,VALID,0.000355114,
2005-10-28, 02:06:01,VALID,917.967,VALID,0,VALID,100,VALID,0.0509425,VALID,19.7554,VALID,72,VALID,0.321584,
2005-10-28, 02:07:00,VALID,917.964,VALID,0,VALID,100,VALID,0.0509425,VALID,19.7693,VALID,72,VALID,0.304865,
2005-10-28, 02:08:00,VALID,917.961,VALID,0,VALID,100,VALID,0.0339617,VALID,19.7524,VALID,72,VALID,0.0610465,
2005-10-28, 02:09:00,VALID,917.967,VALID,0,VALID,100,VALID,0.0509425,VALID,19.736,VALID,72,VALID,0.00111607,
2005-10-28, 02:10:00,VALID,917.939,VALID,0,VALID,100,VALID,0.0169808,VALID,19.7328,VALID,72,VALID,0.000952744,
2005-10-28, 02:11:00,VALID,917.939,VALID,0,VALID,100,VALID,0,VALID,19.7402,VALID,72,VALID,0.0227273,
2005-10-28, 02:12:01,VALID,917.927,VALID,0,VALID,100,VALID,0.0339617,VALID,19.7335,VALID,72,VALID,0.25,
2005-10-28, 02:13:00,VALID,917.909,VALID,0,VALID,100,VALID,0.0339617,VALID,19.7365,VALID,72,VALID,0.12609,
2005-10-28, 02:14:00,VALID,917.91,VALID,0,VALID,100,VALID,0.0169808,VALID,19.7271,VALID,72,VALID,0.150347,
2005-10-28, 02:15:00,VALID,917.885,VALID,0,VALID,100,VALID,0,VALID,19.743,VALID,72,VALID,0.385719,
2005-10-28, 02:16:01,VALID,917.88,VALID,0,VALID,100,VALID,0,VALID,19.7271,VALID,65,VALID,0.574574,
2005-10-28, 02:17:00,VALID,917.855,VALID,0,VALID,100,VALID,0.0509425,VALID,19.7109,VALID,51,VALID,0.78487,
2005-10-28, 02:18:00,VALID,917.848,VALID,0,VALID,100,VALID,-0.0339617,VALID,19.6952,VALID,43,VALID,0.970017,
2005-10-28, 02:19:00,VALID,917.834,VALID,0,VALID,100,VALID,-0.0849042,VALID,19.6798,VALID,33,VALID,0.939368,
2005-10-28, 02:20:01,VALID,917.816,VALID,0,VALID,100,VALID,-0.101885,VALID,19.6644,VALID,42,VALID,0.834821,
2005-10-28, 02:21:00,VALID,917.808,VALID,0,VALID,100,VALID,-0.101885,VALID,19.6709,VALID,42,VALID,0.838728,
2005-10-28, 02:22:01,VALID,917.792,VALID,0,VALID,100,VALID,-0.0849042,VALID,19.6801,VALID,52,VALID,0.735742,
2005-10-28, 02:23:00,VALID,917.771,VALID,0,VALID,100,VALID,-0.0509425,VALID,19.6831,VALID,56,VALID,0.799479,
2005-10-28, 02:24:01,VALID,917.762,VALID,0,VALID,100,VALID,-0.0339617,VALID,19.6895,VALID,60,VALID,0.781436,
2005-10-28, 02:25:00,VALID,917.745,VALID,0,VALID,100,VALID,-0.0849042,VALID,19.6836,VALID,61,VALID,0.611421,
2005-10-28, 02:26:00,VALID,917.73,VALID,0,VALID,100,VALID,-0.0849042,VALID,19.6607,VALID,59,VALID,0.697674,
2005-10-28, 02:27:01,VALID,917.72,VALID,0,VALID,100,VALID,-0.101885,VALID,19.6483,VALID,41,VALID,0.844336,
2005-10-28, 02:28:00,VALID,917.693,VALID,0,VALID,100,VALID,-0.101885,VALID,19.6319,VALID,30,VALID,1.04844,
2005-10-28, 02:29:00,VALID,917.681,VALID,0,VALID,100,VALID,-0.101885,VALID,19.6157,VALID,30,VALID,0.882431,
2005-10-28, 02:30:00,VALID,917.659,VALID,0,VALID,100,VALID,-0.0849042,VALID,19.5896,VALID,35,VALID,0.700521,
2005-10-28, 02:31:00,VALID,917.634,VALID,0,VALID,100,VALID,-0.0849042,VALID,19.5963,VALID,37,VALID,0.750558,
2005-10-28, 02:32:01,VALID,917.614,VALID,0,VALID,100,VALID,-0.0849042,VALID,19.5899,VALID,51,VALID,0.590909,
2005-10-28, 02:33:00,VALID,917.598,VALID,0,VALID,100,VALID,-0.0339617,VALID,19.5827,VALID,52,VALID,0.592448,
2005-10-28, 02:34:00,VALID,917.595,VALID,0,VALID,100,VALID,-0.0169808,VALID,19.5688,VALID,49,VALID,0.485647,
2005-10-28, 02:35:01,VALID,917.598,VALID,0,VALID,100,VALID,0,VALID,19.5789,VALID,32,VALID,0.545015,
2005-10-28, 02:36:00,VALID,917.595,VALID,0,VALID,100,VALID,0,VALID,19.5693,VALID,32,VALID,0.252668,
2005-10-28, 02:37:01,VALID,917.59,VALID,0,VALID,100,VALID,0,VALID,19.5593,VALID,32,VALID,0,
2005-10-28, 02:38:01,VALID,917.589,VALID,0,VALID,100,VALID,0.0169808,VALID,19.5596,VALID,32,VALID,0.0824855,
2005-10-28, 02:39:01,VALID,917.605,VALID,0,VALID,100,VALID,0.0169808,VALID,19.5461,VALID,32,VALID,0.0777616,
2005-10-28, 02:40:01,VALID,917.613,VALID,0,VALID,100,VALID,0.0169808,VALID,19.5464,VALID,33,VALID,0.147135,
2005-10-28, 02:41:00,VALID,917.621,VALID,0,VALID,100,VALID,0,VALID,19.5471,VALID,33,VALID,0.100883,
2005-10-28, 02:42:01,VALID,917.608,VALID,0,VALID,100,VALID,0,VALID,19.5466,VALID,33,VALID,0.0807927,
2005-10-28, 02:43:01,VALID,917.591,VALID,0,VALID,100,VALID,0,VALID,19.5531,VALID,33,VALID,0,
2005-10-28, 02:44:01,VALID,917.575,VALID,0,VALID,100,VALID,-0.0169808,VALID,19.5561,VALID,33,VALID,0.00104167,
2005-10-28, 02:45:01,VALID,917.562,VALID,0,VALID,100,VALID,0,VALID,19.5596,VALID,33,VALID,0.159412,
2005-10-28, 02:46:01,VALID,917.541,VALID,0,VALID,100,VALID,-0.0169808,VALID,19.5663,VALID,33,VALID,0.252907,
2005-10-28, 02:47:01,VALID,917.523,VALID,0,VALID,100,VALID,0,VALID,19.5693,VALID,33,VALID,0.307049,
2005-10-28, 02:48:01,VALID,917.52,VALID,0,VALID,100,VALID,-0.0169808,VALID,19.5792,VALID,33,VALID,0.275254,
2005-10-28, 02:49:00,VALID,917.513,VALID,0,VALID,100,VALID,-0.0169808,VALID,19.5916,VALID,33,VALID,0.265262,
2005-10-28, 02:50:01,VALID,917.503,VALID,0,VALID,100,VALID,0,VALID,19.5949,VALID,33,VALID,0.12066,
2005-10-28, 02:51:01,VALID,917.5,VALID,0,VALID,100,VALID,0.0169808,VALID,19.6048,VALID,33,VALID,0.356357,
2005-10-28, 02:52:01,VALID,917.507,VALID,0,VALID,100,VALID,0.0169808,VALID,19.6045,VALID,33,VALID,0.448401,
2005-10-28, 02:53:00,VALID,917.508,VALID,0,VALID,100,VALID,0,VALID,19.5983,VALID,33,VALID,0.395833,
2005-10-28, 02:54:01,VALID,917.532,VALID,0,VALID,100,VALID,0,VALID,19.5921,VALID,33,VALID,0.368331,
2005-10-28, 02:55:01,VALID,917.552,VALID,0,VALID,100,VALID,0.0169808,VALID,19.5727,VALID,36,VALID,0.346094,
2005-10-28, 02:56:01,VALID,917.562,VALID,0,VALID,100,VALID,0,VALID,19.5665,VALID,87,VALID,0.56436,
2005-10-28, 02:57:01,VALID,917.582,VALID,0,VALID,100,VALID,0.0169808,VALID,19.5504,VALID,110,VALID,0.702415,
2005-10-28, 02:58:01,VALID,917.604,VALID,0,VALID,100,VALID,0,VALID,19.5402,VALID,133,VALID,0.821039,
2005-10-28, 02:59:01,VALID,917.603,VALID,0,VALID,100,VALID,0.0169808,VALID,19.563,VALID,146,VALID,0.931556,
2005-10-28, 03:00:01,VALID,917.615,VALID,0,VALID,100,VALID,0,VALID,19.563,VALID,142,VALID,0.62128,
2005-10-28, 03:01:01,VALID,917.619,VALID,0,VALID,100,VALID,0,VALID,19.569,VALID,142,VALID,0.868459,
2005-10-28, 03:02:01,VALID,917.636,VALID,0,VALID,100,VALID,0,VALID,19.5794,VALID,149,VALID,1.27617,
2005-10-28, 03:03:01,VALID,917.625,VALID,0,VALID,100,VALID,0.0339617,VALID,19.5757,VALID,146,VALID,0.990091,
2005-10-28, 03:04:01,VALID,917.635,VALID,0,VALID,100,VALID,0,VALID,19.5824,VALID,138,VALID,0.773624,
2005-10-28, 03:05:01,VALID,917.609,VALID,0.2,VALID,100,VALID,0,VALID,19.5919,VALID,139,VALID,0.98601,
2005-10-28, 03:06:01,VALID,917.59,VALID,0,VALID,100,VALID,0,VALID,19.5921,VALID,135,VALID,0.559482,
2005-10-28, 03:07:01,VALID,917.573,VALID,0,VALID,100,VALID,0,VALID,19.5983,VALID,139,VALID,0.13536,
2005-10-28, 03:08:01,VALID,917.549,VALID,0,VALID,100,VALID,0,VALID,19.608,VALID,134,VALID,0.260231,
2005-10-28, 03:09:01,VALID,917.521,VALID,0,VALID,100,VALID,0,VALID,19.6053,VALID,123,VALID,0.17359,
2005-10-28, 03:10:01,VALID,917.501,VALID,0,VALID,100,VALID,0,VALID,19.6018,VALID,114,VALID,0.642912,
2005-10-28, 03:11:01,VALID,917.485,VALID,0,VALID,100,VALID,0,VALID,19.6043,VALID,123,VALID,0.740625,
2005-10-28, 03:12:01,VALID,917.46,VALID,0,VALID,100,VALID,-0.0339617,VALID,19.6115,VALID,121,VALID,0.618304,
2005-10-28, 03:13:01,VALID,917.448,VALID,0,VALID,100,VALID,0,VALID,19.6145,VALID,119,VALID,0.614644,
2005-10-28, 03:14:01,VALID,917.442,VALID,0,VALID,100,VALID,0,VALID,19.6279,VALID,106,VALID,0.436133,
2005-10-28, 03:15:01,VALID,917.429,VALID,0,VALID,100,VALID,0.0169808,VALID,19.6145,VALID,106,VALID,0.34593,
2005-10-28, 03:16:01,VALID,917.433,VALID,0,VALID,100,VALID,0,VALID,19.6175,VALID,106,VALID,0.146662,
2005-10-28, 03:17:01,VALID,917.437,VALID,0,VALID,100,VALID,0,VALID,19.6309,VALID,106,VALID,0.285511,
2005-10-28, 03:18:01,VALID,917.45,VALID,0,VALID,100,VALID,-0.0339617,VALID,19.6214,VALID,106,VALID,0.292535,
2005-10-28, 03:19:01,VALID,917.456,VALID,0,VALID,100,VALID,-0.118866,VALID,19.6252,VALID,106,VALID,0.143973,
2005-10-28, 03:20:00,VALID,917.446,VALID,0,VALID,100,VALID,-0.101885,VALID,19.6286,VALID,106,VALID,0.037642,
2005-10-28, 03:21:00,VALID,917.44,VALID,0,VALID,100,VALID,-0.0509425,VALID,19.6326,VALID,106,VALID,0.306463,
2005-10-28, 03:22:00,VALID,917.44,VALID,0,VALID,100,VALID,-0.101885,VALID,19.6224,VALID,129,VALID,0.494048,
2005-10-28, 03:23:00,VALID,917.441,VALID,0,VALID,100,VALID,-0.0849042,VALID,19.6192,VALID,143,VALID,0.33939,
2005-10-28, 03:24:00,VALID,917.435,VALID,0,VALID,100,VALID,-0.101885,VALID,19.6289,VALID,143,VALID,0.245994,
2005-10-28, 03:25:00,VALID,917.45,VALID,0,VALID,100,VALID,-0.101885,VALID,19.6356,VALID,143,VALID,0.19186,
2005-10-28, 03:26:00,VALID,917.455,VALID,0,VALID,100,VALID,-0.0849042,VALID,19.6319,VALID,143,VALID,0.170277,
2005-10-28, 03:27:00,VALID,917.46,VALID,0,VALID,100,VALID,-0.101885,VALID,19.6321,VALID,123,VALID,0.486281,
2005-10-28, 03:28:00,VALID,917.459,VALID,0,VALID,100,VALID,-0.0849042,VALID,19.6257,VALID,98,VALID,0.671503,
2005-10-28, 03:29:00,VALID,917.473,VALID,0,VALID,100,VALID,-0.101885,VALID,19.6224,VALID,99,VALID,0.722565,
2005-10-28, 03:30:00,VALID,917.474,VALID,0,VALID,100,VALID,-0.101885,VALID,19.6319,VALID,112,VALID,0.623365,
2005-10-28, 03:31:00,VALID,917.479,VALID,0,VALID,100,VALID,-0.101885,VALID,19.6229,VALID,134,VALID,0.412388,
2005-10-28, 03:32:00,VALID,917.483,VALID,0,VALID,100,VALID,-0.0679233,VALID,19.606,VALID,125,VALID,0.724432,
2005-10-28, 03:33:00,VALID,917.491,VALID,0,VALID,100,VALID,-0.0849042,VALID,19.5931,VALID,115,VALID,0.418826,
2005-10-28, 03:34:00,VALID,917.492,VALID,0,VALID,100,VALID,-0.0849042,VALID,19.5901,VALID,111,VALID,0.829942,
2005-10-28, 03:35:00,VALID,917.497,VALID,0,VALID,100,VALID,-0.0849042,VALID,19.5774,VALID,103,VALID,0.75799,
2005-10-28, 03:36:00,VALID,917.495,VALID,0,VALID,100,VALID,-0.0849042,VALID,19.5543,VALID,102,VALID,0.925781,
2005-10-28, 03:37:00,VALID,917.482,VALID,0,VALID,100,VALID,-0.0679233,VALID,19.5384,VALID,97,VALID,0.83939,
2005-10-28, 03:38:00,VALID,917.481,VALID,0,VALID,100,VALID,-0.0679233,VALID,19.5253,VALID,106,VALID,0.838663,
2005-10-28, 03:39:00,VALID,917.486,VALID,0,VALID,100,VALID,-0.0509425,VALID,19.5223,VALID,110,VALID,0.801639,
2005-10-28, 03:40:00,VALID,917.489,VALID,0,VALID,100,VALID,-0.0849042,VALID,19.5287,VALID,97,VALID,0.708629,
2005-10-28, 03:41:00,VALID,917.502,VALID,0,VALID,100,VALID,-0.0509425,VALID,19.5123,VALID,109,VALID,0.518924,